Wind_Speed
9 9 10 13 15 17 20 20 20 19 18 16 15 14 12 10 9 8 7 6 4 4 3 3 2 1 1 1 2 3 3 3 4 4 4 4 4 5 5 6 6 7 7
10 7 8 9 13 16 17 18 18 18 18 17 15 13 12 10 9 8 7 6 5 4 4 3 2 1 1 1 2 3 3 4 4 4 4 5 5 6 6 6 6 7 7
9 6 6 7 10 13 16 16 17 17 17 16 14 13 11 10 9 9 8 7 6 5 4 3 2 1 0 1 2 3 3 4 4 5 5 5 6 6 7 7 7 8 8
9 5 4 6 8 11 14 15 15 15 15 14 14 12 11 11 10 10 9 8 6 5 5 4 3 2 1 1 2 2 3 4 4 5 6 6 7 7 8 8 9 9 10
9 5 2 4 5 8 11 13 13 13 13 13 13 13 12 11 10 10 10 8 7 6 5 5 4 3 3 3 4 4 4 5 5 6 7 8 9 9 9 10 10 11 11
9 5 2 1 4 6 8 10 12 13 13 13 13 12 12 12 11 10 10 8 8 7 7 6 5 5 5 6 6 7 7 7 8 9 9 10 11 11 11 12 12 13 13
8 6 5 2 1 4 7 9 10 11 12 13 12 12 12 12 11 11 10 9 8 8 8 7 8 8 8 9 9 10 10 11 11 12 12 13 13 13 14 14 15 15 15
8 6 4 3 1 3 5 7 9 10 11 12 12 12 12 11 11 11 10 10 10 10 9 9 10 10 11 11 12 13 13 14 14 15 15 16 16 16 17 17 18 18 17
7 5 3 3 1 1 3 5 7 9 10 11 11 11 11 11 11 11 11 11 11 11 11 12 12 13 13 14 15 15 16 17 18 18 18 19 19 20 20 20 20 21 20
6 5 3 2 1 1 2 5 7 9 10 10 10 11 11 12 12 12 12 13 13 13 14 14 15 15 16 17 17 18 19 20 20 21 21 22 22 23 23 24 24 24 24
7 6 5 4 3 3 4 6 7 9 10 11 11 11 12 12 12 13 13 14 15 15 16 17 17 18 19 20 20 21 22 23 23 24 24 24 25 25 26 26 27 27 27
8 7 7 6 5 5 5 6 8 8 10 11 12 12 13 13 14 14 15 16 17 18 18 19 20 21 22 22 23 24 24 25 25 26 26 26 27 27 28 28 29 29 30
10 9 9 8 7 8 7 8 8 9 10 11 12 14 14 15 16 17 18 18 19 20 21 22 22 23 24 24 25 26 26 27 27 28 28 29 29 29 30 30 31 32 32
13 12 11 10 10 11 11 11 12 12 12 13 14 16 17 18 18 19 20 21 22 23 24 24 25 25 26 27 27 28 29 29 30 30 31 31 31 32 33 33 34 34 34
14 14 14 13 12 12 13 14 15 15 15 16 17 18 18 19 20 22 23 23 24 25 26 26 27 27 28 29 30 31 31 31 32 32 33 34 34 35 36 36 36 37 37
16 15 16 16 16 16 15 16 17 18 19 19 21 21 22 23 23 24 25 26 27 27 28 28 29 30 30 31 32 33 33 34 34 35 35 36 36 37 38 39 40 40 40
17 17 17 18 19 19 20 20 20 21 22 23 24 25 26 27 28 28 29 30 31 31 31 31 32 32 33 34 35 36 37 37 37 38 39 39 40 41 41 42 43 43 44
19 19 19 20 21 22 23 24 25 25 26 27 28 28 29 30 30 31 33 34 35 35 35 34 35 36 37 37 37 39 39 40 40 41 42 43 43 44 45 46 46 46 47
21 21 22 22 22 24 25 27 28 29 30 31 31 32 32 32 32 33 35 36 37 38 37 37 38 39 39 40 41 41 42 43 43 43 44 45 46 47 48 49 50 49 49
23 23 24 23 24 25 26 28 29 30 32 33 34 35 35 35 35 36 37 37 37 38 38 39 40 40 41 41 42 44 45 45 46 46 47 48 49 49 51 52 52 53 52
24 24 25 25 26 27 28 29 30 30 31 33 34 35 36 37 37 36 37 37 39 39 40 40 41 42 43 43 43 45 46 47 48 49 50 52 53 54 55 56 57 57 57
25 26 26 27 27 28 29 30 31 31 32 33 34 36 36 36 36 36 37 38 38 39 40 41 42 43 44 45 46 47 49 50 52 53 55 57 58 59 60 61 61 62 63
27 27 28 28 28 29 30 31 32 32 33 33 34 35 36 36 36 36 36 37 38 39 40 42 43 45 47 48 50 51 53 55 56 58 59 61 62 63 64 65 65 66 66
27 27 28 28 29 30 31 31 32 33 34 34 34 35 35 35 36 37 38 39 40 41 42 44 45 47 49 52 53 55 57 59 61 62 63 64 65 66 66 67 67 68 68
29 29 30 31 31 31 32 33 33 34 34 35 35 35 36 37 37 38 39 41 42 43 45 47 49 51 52 54 57 59 61 62 64 65 65 66 66 66 67 67 67 67 67
29 30 31 32 32 33 34 35 35 35 36 37 37 37 38 39 40 41 42 43 45 47 49 51 53 55 56 58 59 61 62 63 64 64 64 63 64 64 63 63 62 62 63
Wind_Direction
300 277 256 239 231 225 225 227 229 229 231 229 226 229 229 226 223 221 218 215 212 213 209 195 173 137 51 14 9 13 10 4 3 4 5 3 352 342 335 330 326 321 315
319 293 265 245 230 223 224 224 225 225 225 227 226 223 220 219 212 210 210 208 206 202 196 187 167 144 76 31 24 19 14 10 8 5 0 356 353 351 346 342 335 327 321
333 302 263 242 231 225 220 223 225 222 221 220 220 218 215 211 207 207 208 205 202 198 195 189 177 173 261 7 14 10 6 5 3 359 354 351 348 348 347 345 340 335 329
340 320 262 232 227 219 217 218 219 216 214 216 216 212 209 208 208 204 205 204 202 199 199 201 205 219 257 299 320 336 345 347 346 345 342 341 340 338 337 335 332 330 327
346 340 285 231 222 213 212 210 208 206 209 212 209 208 209 209 205 203 206 208 208 208 211 217 228 245 264 280 293 300 308 315 320 322 323 324 326 327 325 324 323 323 322
354 6 13 209 208 213 205 201 201 205 207 205 206 208 209 207 205 206 211 216 220 224 229 234 245 257 269 280 287 292 295 299 304 308 310 313 315 316 316 317 317 316 315
357 2 16 39 179 198 194 196 198 201 202 201 201 205 208 208 208 211 217 224 231 237 241 247 256 264 272 279 283 288 290 292 296 300 303 305 307 308 309 310 310 309 309
359 4 5 14 107 170 183 194 201 203 203 202 203 208 212 213 214 217 224 232 237 242 249 257 264 270 275 280 284 288 290 292 293 295 297 299 300 300 302 303 304 304 304
352 1 13 25 20 197 196 198 200 201 202 205 209 216 220 223 226 228 234 240 245 251 256 263 269 274 278 282 285 288 289 291 293 294 295 295 296 296 297 298 299 299 299
333 341 342 349 336 279 229 215 212 211 212 216 222 225 229 233 234 238 244 250 255 259 263 268 273 277 281 284 287 288 289 290 291 292 293 293 294 294 295 295 295 295 296
313 314 314 311 306 279 252 236 231 229 229 231 232 233 235 239 242 247 252 257 261 265 269 273 276 279 282 285 287 288 288 289 290 291 292 292 292 293 293 293 293 292 293
302 300 295 290 286 285 272 253 246 247 245 242 242 242 245 248 252 256 259 263 266 270 274 277 279 282 285 286 287 287 288 288 289 290 291 291 291 291 291 291 290 289 290
287 287 288 286 276 276 274 267 261 258 253 255 256 255 255 257 259 262 265 268 270 273 276 279 280 282 284 285 286 286 287 287 288 288 289 289 289 289 289 288 288 288 288
289 285 281 279 278 276 273 271 269 265 263 263 264 262 262 263 265 267 269 271 273 275 277 280 281 282 283 284 284 285 285 285 286 287 287 287 287 286 286 286 286 285 285
283 285 282 278 276 274 274 273 272 270 271 270 271 269 267 269 270 271 272 273 275 276 278 279 280 282 283 283 284 284 284 285 285 285 286 287 286 286 285 286 286 285 284
284 281 282 281 280 279 280 277 276 274 273 273 273 273 274 273 273 274 277 278 278 278 279 281 282 283 284 283 285 285 284 285 284 284 284 285 286 285 285 285 284 285 285
285 281 279 279 280 280 282 283 283 280 279 278 277 276 278 278 277 276 276 277 277 278 278 279 281 282 282 283 283 284 285 285 285 285 285 285 285 284 283 283 283 284 284
284 282 281 282 280 279 280 281 282 282 281 281 281 282 281 281 280 279 279 278 278 278 279 279 281 283 282 282 283 285 286 286 287 286 285 285 285 285 284 283 283 283 284
283 282 282 284 284 283 281 280 281 281 282 281 280 282 281 281 282 282 282 281 279 280 280 280 282 283 283 284 284 284 285 286 287 287 286 286 286 285 283 283 284 284 283
284 283 282 284 285 284 284 283 282 283 282 282 281 282 281 282 282 282 282 282 282 283 283 284 284 285 286 286 287 286 286 286 287 287 287 287 287 286 285 285 284 284 283
283 284 284 285 286 285 285 284 284 285 285 285 284 285 285 283 284 285 285 284 283 283 285 285 285 286 287 288 289 289 289 289 289 289 288 288 287 287 286 285 285 284 282
284 285 285 285 286 286 286 286 286 286 287 287 285 285 285 284 285 285 286 286 286 286 286 287 287 288 289 289 290 290 290 290 290 289 289 288 288 288 287 286 285 284 283
284 284 285 285 286 286 287 287 286 287 288 288 288 287 287 286 286 287 287 288 289 289 289 290 290 290 290 291 291 291 290 290 290 289 289 289 289 288 287 286 285 284 283
284 285 286 286 286 286 286 286 287 288 288 288 287 287 288 289 289 290 291 291 292 292 293 293 293 292 292 292 292 292 291 291 290 290 290 289 288 287 286 285 284 283 282
284 285 286 286 286 286 287 288 289 290 290 290 291 291 291 291 291 292 292 293 293 294 294 294 294 294 294 294 293 293 293 293 292 292 291 290 289 288 287 285 285 284 283
285 286 287 288 287 288 288 289 289 290 291 291 291 291 291 292 292 293 293 294 294 295 295 296 296 296 296 296 296 295 295 295 295 294 293 292 291 290 288 286 286 284 283
Height
5835 5835 5835 5837 5838 5841 5844 5847 5851 5854 5858 5861 5864 5867 5870 5872 5874 5876 5877 5878 5879 5880 5881 5881 5882 5882 5883 5883 5883 5882 5882 5882 5882 5882 5882 5881 5881 5881 5880 5880 5880 5880 5879
5835 5835 5835 5835 5837 5839 5842 5845 5849 5852 5855 5859 5862 5866 5868 5871 5873 5875 5876 5877 5878 5879 5880 5881 5881 5882 5882 5882 5882 5882 5882 5882 5882 5881 5881 5881 5881 5880 5880 5879 5879 5878 5878
5835 5834 5834 5835 5836 5838 5841 5844 5847 5850 5853 5857 5861 5864 5866 5869 5872 5873 5875 5877 5878 5878 5879 5880 5881 5882 5882 5882 5882 5882 5882 5882 5881 5881 5881 5881 5880 5879 5879 5878 5878 5877 5877
5836 5835 5834 5835 5836 5837 5839 5842 5845 5849 5851 5855 5859 5862 5865 5868 5870 5872 5874 5876 5877 5878 5879 5880 5880 5881 5881 5882 5882 5882 5881 5881 5881 5880 5880 5880 5879 5878 5878 5877 5876 5876 5875
5837 5835 5834 5835 5835 5837 5839 5841 5845 5848 5851 5854 5858 5861 5864 5867 5869 5871 5873 5875 5876 5877 5878 5879 5879 5880 5880 5881 5881 5881 5881 5880 5880 5880 5879 5878 5877 5877 5876 5876 5875 5874 5873
5837 5836 5835 5835 5836 5837 5839 5842 5845 5848 5850 5854 5857 5860 5863 5865 5867 5870 5872 5873 5874 5876 5876 5877 5878 5879 5879 5879 5880 5879 5879 5879 5879 5878 5877 5877 5876 5875 5874 5874 5873 5872 5871
5839 5837 5837 5836 5837 5838 5840 5842 5844 5847 5850 5853 5856 5859 5861 5864 5866 5868 5870 5872 5873 5874 5875 5876 5876 5877 5877 5878 5878 5877 5877 5877 5877 5876 5875 5874 5874 5873 5872 5871 5870 5869 5869
5840 5839 5838 5838 5838 5839 5840 5842 5844 5847 5850 5852 5855 5857 5860 5862 5864 5866 5868 5870 5871 5872 5873 5873 5874 5875 5875 5875 5875 5875 5875 5874 5874 5873 5872 5872 5871 5870 5869 5868 5867 5866 5865
5841 5840 5840 5840 5840 5841 5841 5843 5845 5847 5849 5852 5854 5856 5858 5860 5862 5864 5866 5867 5868 5869 5870 5871 5871 5872 5872 5872 5872 5871 5871 5871 5870 5869 5869 5868 5867 5866 5865 5864 5863 5862 5861
5842 5841 5841 5841 5841 5841 5842 5843 5845 5847 5849 5851 5853 5855 5857 5858 5860 5862 5863 5864 5865 5866 5867 5867 5868 5868 5868 5868 5868 5867 5867 5866 5866 5865 5864 5863 5862 5861 5860 5859 5858 5857 5856
5842 5841 5841 5841 5841 5841 5842 5843 5844 5846 5848 5849 5851 5853 5855 5856 5858 5859 5860 5861 5862 5862 5863 5863 5863 5864 5863 5863 5863 5862 5862 5861 5860 5859 5858 5857 5856 5855 5854 5853 5852 5851 5849
5841 5841 5841 5840 5841 5841 5842 5842 5844 5845 5846 5848 5849 5851 5852 5853 5854 5855 5856 5857 5857 5858 5858 5858 5858 5858 5858 5858 5857 5856 5856 5855 5854 5853 5852 5851 5850 5849 5847 5846 5845 5844 5843
5840 5840 5840 5840 5839 5840 5841 5841 5842 5843 5844 5845 5847 5848 5849 5850 5851 5851 5852 5852 5852 5853 5853 5853 5853 5852 5852 5851 5850 5850 5849 5848 5847 5846 5845 5844 5842 5841 5840 5839 5837 5836 5835
5838 5838 5838 5838 5838 5839 5839 5839 5840 5839 5839 5841 5843 5844 5845 5845 5846 5846 5846 5846 5847 5847 5847 5846 5846 5845 5845 5844 5843 5842 5841 5840 5839 5838 5837 5836 5834 5833 5831 5830 5829 5827 5826
5836 5835 5835 5835 5835 5836 5837 5837 5837 5838 5838 5838 5839 5838 5838 5839 5840 5840 5840 5840 5840 5840 5839 5839 5838 5837 5837 5836 5835 5834 5833 5832 5831 5830 5828 5827 5825 5824 5822 5821 5819 5818 5817
5832 5832 5832 5832 5832 5832 5833 5833 5834 5834 5834 5834 5833 5833 5833 5834 5834 5834 5833 5833 5832 5832 5831 5831 5830 5829 5828 5827 5826 5825 5823 5822 5822 5820 5819 5817 5815 5814 5812 5810 5808 5807 5806
5829 5829 5829 5829 5828 5828 5829 5829 5829 5829 5829 5828 5827 5826 5826 5826 5826 5826 5825 5825 5824 5823 5823 5822 5821 5820 5819 5817 5816 5814 5813 5812 5811 5810 5808 5806 5804 5802 5801 5799 5797 5795 5794
5824 5824 5824 5824 5824 5824 5824 5823 5823 5823 5823 5822 5821 5820 5819 5819 5818 5816 5816 5816 5815 5814 5813 5812 5811 5810 5808 5806 5805 5803 5801 5800 5799 5798 5796 5794 5793 5790 5788 5786 5784 5783 5782
5819 5819 5819 5818 5818 5818 5818 5817 5817 5816 5815 5815 5814 5812 5811 5810 5809 5809 5808 5806 5805 5804 5803 5801 5800 5799 5797 5795 5793 5791 5789 5788 5787 5785 5783 5781 5779 5777 5774 5772 5770 5769 5768
5813 5813 5813 5812 5812 5812 5811 5810 5809 5808 5807 5806 5805 5804 5802 5801 5800 5799 5798 5796 5795 5793 5792 5790 5789 5787 5785 5783 5781 5779 5777 5775 5773 5771 5769 5766 5764 5762 5759 5757 5755 5753 5752
5807 5807 5807 5806 5805 5805 5804 5803 5802 5800 5799 5798 5796 5795 5793 5792 5790 5789 5787 5786 5784 5782 5780 5779 5777 5775 5772 5770 5769 5766 5764 5761 5759 5757 5754 5751 5748 5746 5743 5740 5738 5735 5733
5801 5800 5800 5799 5798 5797 5796 5795 5794 5792 5790 5789 5787 5785 5784 5782 5780 5779 5777 5775 5773 5771 5770 5767 5765 5762 5760 5758 5755 5753 5750 5747 5744 5741 5738 5735 5731 5728 5724 5721 5718 5715 5712
5794 5794 5793 5792 5791 5790 5789 5787 5785 5783 5781 5779 5778 5776 5774 5772 5770 5768 5767 5765 5763 5760 5758 5756 5753 5750 5747 5744 5741 5738 5735 5731 5728 5724 5721 5717 5712 5708 5705 5701 5696 5693 5690
5787 5786 5785 5785 5783 5782 5781 5779 5777 5775 5773 5770 5768 5767 5765 5762 5760 5758 5756 5753 5751 5748 5746 5743 5739 5736 5733 5729 5725 5721 5717 5713 5709 5706 5702 5697 5692 5687 5683 5679 5675 5671 5667
5780 5779 5778 5776 5775 5774 5772 5770 5768 5766 5763 5761 5759 5757 5754 5752 5750 5748 5745 5742 5739 5735 5732 5729 5725 5721 5717 5713 5708 5703 5699 5694 5689 5684 5680 5675 5670 5665 5660 5656 5652 5647 5643
5771 5770 5769 5768 5766 5764 5762 5760 5758 5756 5754 5751 5749 5746 5743 5741 5738 5735 5732 5728 5725 5722 5718 5714 5709 5705 5700 5695 5690 5684 5679 5673 5667 5662 5658 5653 5647 5642 5637 5633 5629 5624 5620